Wind_Speed
14 14 13 13 13 12 11 12 12 9 9 10 10 10 10 11 10 10 10 9 8 9 8 9 10 10 10 10 10 10 10 9 9 8 7 6 6 5 4 3 3 2 2 2
15 14 12 14 15 15 13 14 12 9 11 12 12 12 13 12 10 10 11 10 9 8 8 8 8 9 10 10 10 10 9 9 9 8 7 6 5 5 4 3 4 3 2 2
15 13 14 16 16 16 15 16 15 13 14 13 14 13 14 14 12 11 11 12 11 9 9 8 8 8 8 9 10 10 10 9 9 8 8 7 6 5 4 4 4 3 3 3
15 15 17 18 17 17 17 15 16 15 14 15 15 17 17 16 16 13 13 12 12 11 10 9 8 8 7 8 9 10 10 9 9 9 8 8 7 6 5 4 4 4 4 4
16 17 19 19 19 18 17 16 17 16 16 17 16 17 16 15 16 15 14 13 12 13 12 11 9 8 8 9 9 9 10 9 9 9 9 8 7 7 7 5 5 5 5 5
18 18 19 19 20 19 18 18 18 17 15 18 17 17 16 16 17 17 15 15 15 14 14 13 11 10 10 10 10 9 10 10 11 10 10 9 8 8 7 7 6 6 6 7
18 19 20 19 19 19 18 18 17 17 18 19 16 17 19 18 18 17 16 17 18 17 16 15 13 12 11 11 11 10 10 10 10 10 10 10 9 9 9 8 8 8 8 8
18 19 20 21 21 20 19 19 19 19 19 19 18 19 19 20 18 18 18 19 19 18 17 16 15 14 14 13 13 12 11 11 11 11 11 11 11 11 11 10 11 11 10 10
19 20 20 22 21 22 21 20 19 21 22 22 20 20 21 20 19 19 19 19 18 17 19 18 17 17 17 16 15 14 13 13 13 13 13 12 12 12 13 13 13 13 13 13
23 22 20 21 23 23 23 22 21 22 24 23 21 22 23 23 22 22 20 19 19 19 20 20 20 19 19 18 18 17 15 15 14 15 15 15 15 15 16 16 15 15 15 15
25 26 23 23 24 23 23 24 25 25 24 23 23 24 24 24 23 22 21 20 21 20 21 23 22 21 19 18 18 17 17 17 16 16 17 17 17 17 18 18 18 17 18 18
27 28 27 26 25 24 24 25 25 26 26 25 24 26 25 25 25 25 25 22 20 21 23 24 22 21 21 21 21 19 19 19 19 18 18 19 19 19 20 20 20 19 20 20
29 29 28 25 24 26 26 26 27 26 26 26 26 28 28 29 28 27 26 23 22 23 23 24 24 23 23 23 22 22 21 21 21 21 20 20 21 21 22 22 22 22 23 23
32 32 30 27 24 24 27 27 27 27 28 28 28 29 30 31 30 29 28 25 25 25 25 25 26 26 26 25 24 25 24 23 23 23 23 23 23 23 24 24 24 25 25 25
33 33 33 32 29 28 28 27 27 29 30 30 29 30 31 33 33 31 28 28 26 27 28 27 28 28 28 27 26 26 27 26 26 26 25 25 26 27 26 26 26 27 28 27
34 34 34 34 32 30 30 30 29 29 30 30 31 32 32 33 34 34 32 31 30 29 30 29 30 30 30 29 28 28 28 28 28 28 28 28 27 28 28 28 28 28 29 28
33 35 34 34 32 32 32 31 31 31 30 31 32 33 34 36 35 35 34 32 31 31 30 31 31 31 31 31 30 30 31 30 30 30 30 30 30 29 29 29 29 30 30 29
34 35 35 34 33 35 33 32 32 33 33 34 36 36 37 39 38 37 36 35 33 32 32 32 31 32 32 33 33 33 32 33 32 32 32 33 33 31 31 31 32 32 32 32
33 33 34 34 33 33 34 34 33 33 34 34 36 37 38 39 39 39 38 37 36 35 34 34 34 33 34 34 34 35 35 36 34 33 33 33 33 33 34 34 34 34 34 34
33 33 34 34 34 34 35 33 32 32 36 34 36 37 37 38 39 39 38 37 37 36 36 37 36 34 35 35 35 36 36 36 36 35 35 35 35 36 36 36 35 36 36 35
31 32 34 35 36 36 35 35 33 34 36 35 35 36 36 37 38 38 37 37 37 36 36 36 36 35 35 36 37 37 37 37 37 37 37 37 37 38 38 38 37 37 38 38
32 32 34 35 37 37 35 36 36 36 36 37 37 37 37 36 37 37 37 37 37 37 37 36 37 37 37 38 38 38 38 38 38 39 39 38 39 39 39 39 39 38 37 39
33 33 33 35 36 36 36 36 37 38 38 37 37 37 37 37 37 37 37 37 38 38 37 37 36 36 37 38 39 39 39 40 40 40 40 40 40 39 39 40 39 40 39 38
35 35 35 36 36 35 36 36 37 37 37 37 38 38 38 37 37 36 36 36 36 36 36 36 36 36 37 38 39 39 40 40 40 40 40 41 40 40 40 40 40 41 40 39
35 37 36 36 33 35 36 37 37 37 34 34 35 36 36 36 35 35 34 35 35 36 35 35 36 37 37 38 39 40 40 40 41 41 41 41 42 42 42 41 41 41 41 40
33 36 37 35 34 35 34 34 34 35 35 34 34 34 35 35 34 34 34 33 34 34 35 36 37 38 38 38 38 39 39 40 41 41 41 42 42 42 43 42 42 41 41 41
Wind_Direction
220 219 221 229 235 237 244 254 258 252 260 271 270 273 282 300 309 311 319 332 344 359 7 11 16 17 17 18 21 24 25 25 25 24 26 25 26 34 33 27 21 15 6 347
223 226 229 236 243 243 244 251 256 258 254 262 267 265 270 284 291 294 303 312 320 339 353 358 1 7 10 9 11 12 12 12 12 13 14 15 14 10 10 8 8 356 317 304
231 229 236 238 241 244 247 246 246 250 250 255 262 268 265 269 273 279 289 299 305 315 331 343 344 350 358 360 360 2 2 360 359 360 4 1 354 356 1 356 351 337 313 309
234 235 237 240 244 241 245 244 249 248 252 257 254 260 265 264 276 273 280 287 297 302 307 320 329 329 336 344 349 352 352 351 353 352 349 351 346 341 342 335 331 331 322 312
237 237 238 238 242 241 242 242 249 250 248 253 251 256 264 266 269 274 280 279 280 287 293 301 310 314 315 322 332 342 346 348 349 346 341 338 338 335 333 327 325 322 322 317
236 238 241 241 244 243 240 243 250 253 254 256 256 255 255 256 265 264 272 275 277 281 285 287 294 300 303 307 313 321 330 335 337 337 338 335 331 328 326 324 325 324 319 317
243 241 243 242 243 247 246 245 248 251 254 258 262 256 255 254 256 259 261 262 269 272 275 277 279 288 292 297 300 304 310 316 322 323 328 327 322 322 320 319 319 317 316 313
248 250 249 246 243 240 242 242 243 246 252 263 260 252 251 252 253 254 256 259 261 265 270 276 277 279 281 285 292 296 298 301 305 310 314 317 315 311 313 313 314 314 312 309
238 246 249 250 248 242 241 241 242 249 252 260 259 257 256 254 260 259 256 259 262 262 267 272 272 275 279 277 280 285 290 293 294 298 302 305 308 307 310 309 306 309 310 309
233 235 237 245 246 245 242 240 241 244 248 254 259 261 261 261 259 264 261 259 264 266 268 270 270 272 277 274 274 279 282 287 290 292 294 296 298 301 302 305 304 303 305 307
236 236 235 237 242 246 245 241 239 241 241 248 255 258 260 265 263 263 264 262 263 265 268 271 271 268 273 277 277 276 279 283 286 288 291 291 292 295 298 298 297 298 303 304
239 239 238 237 242 248 245 244 240 240 241 241 249 259 260 261 263 262 261 261 260 264 266 270 271 267 266 271 276 275 277 277 280 284 286 288 288 289 291 293 293 293 295 298
240 239 239 239 238 244 246 245 243 241 244 245 247 256 259 263 265 262 262 260 262 262 263 268 271 272 269 266 268 271 274 274 275 278 280 284 286 289 290 289 289 289 290 291
243 241 237 237 235 237 244 246 244 242 241 244 247 255 259 260 262 264 264 262 262 262 262 265 267 269 270 270 268 269 271 276 277 276 277 280 283 285 287 288 287 288 288 288
245 244 241 237 235 237 241 240 241 244 242 242 245 251 257 259 260 263 264 264 263 264 263 264 266 268 270 271 273 273 273 276 278 278 277 278 279 280 283 286 285 285 287 287
248 246 244 242 240 240 243 244 244 244 245 243 246 251 255 258 259 262 264 266 266 266 265 266 265 265 265 268 270 271 273 275 276 277 278 276 278 279 283 284 284 283 285 285
253 252 249 245 243 242 243 244 244 245 247 245 245 249 252 255 260 263 264 266 266 265 266 267 266 264 263 264 265 267 269 272 274 275 276 277 279 278 279 282 284 283 285 285
253 252 250 248 245 244 243 245 246 247 248 249 250 249 251 255 258 262 265 266 267 269 267 266 266 265 264 263 264 266 268 271 271 272 275 278 280 279 281 284 284 284 285 284
252 251 249 247 247 248 246 245 244 247 248 248 249 251 253 256 260 261 264 266 266 267 265 264 264 266 265 264 264 265 267 270 273 272 274 277 279 281 282 282 283 282 282 282
252 250 248 246 246 246 247 249 249 250 250 251 253 256 258 259 261 261 262 264 265 265 263 263 265 265 264 264 265 266 269 269 271 272 273 276 278 280 281 282 282 282 282 281
251 250 248 246 247 248 249 248 249 250 253 254 256 257 259 261 262 263 263 264 264 263 263 264 264 264 263 264 266 267 268 270 271 272 274 276 278 279 281 282 282 283 282 280
246 248 248 247 247 248 250 248 248 252 254 255 256 258 261 263 264 265 265 264 264 264 264 264 264 264 264 265 266 267 268 270 271 272 275 277 278 280 280 280 281 281 281 279
245 243 242 243 245 248 249 250 250 252 255 257 257 260 262 264 264 264 265 265 265 265 264 263 263 263 264 265 266 267 268 270 271 272 274 275 277 279 280 280 280 280 282 281
243 242 240 242 243 244 249 251 250 251 254 256 257 260 263 265 266 265 264 265 264 264 263 262 263 264 264 266 266 266 268 269 271 272 274 275 276 277 278 279 280 280 280 281
244 243 244 242 243 244 247 251 253 253 255 256 259 262 264 267 268 267 265 265 264 265 264 263 264 265 266 266 267 267 268 270 270 271 273 273 274 276 277 279 280 279 279 280
245 245 245 245 246 245 248 250 253 252 256 258 260 262 264 265 266 265 266 265 265 265 265 266 267 267 267 267 268 269 270 271 271 271 272 273 273 275 277 278 278 278 278 279
Height
5889 5892 5894 5897 5900 5902 5903 5905 5905 5906 5906 5908 5908 5907 5905 5904 5904 5902 5900 5898 5897 5896 5895 5894 5892 5891 5890 5889 5888 5887 5886 5885 5884 5883 5882 5882 5882 5881 5882 5882 5882 5882 5882 5882
5887 5889 5893 5895 5897 5899 5901 5903 5904 5905 5905 5906 5906 5905 5904 5904 5903 5901 5900 5898 5897 5895 5895 5894 5893 5892 5891 5890 5889 5888 5887 5886 5885 5884 5884 5883 5883 5882 5882 5882 5883 5883 5883 5883
5884 5889 5891 5892 5894 5896 5898 5901 5902 5902 5903 5903 5904 5903 5902 5901 5900 5900 5899 5898 5896 5895 5895 5894 5893 5892 5892 5891 5890 5889 5888 5887 5886 5885 5884 5884 5883 5883 5883 5883 5883 5883 5883 5883
5882 5885 5887 5889 5891 5893 5895 5897 5898 5899 5899 5900 5901 5900 5899 5898 5897 5897 5897 5896 5895 5894 5894 5893 5892 5892 5891 5891 5890 5889 5888 5887 5886 5885 5885 5884 5884 5883 5883 5883 5883 5883 5883 5883
5878 5881 5883 5885 5887 5889 5891 5893 5894 5894 5895 5896 5897 5896 5896 5895 5895 5895 5895 5894 5894 5893 5892 5891 5891 5891 5890 5890 5889 5889 5888 5886 5885 5885 5884 5883 5883 5883 5883 5882 5882 5882 5882 5882
5875 5878 5879 5881 5883 5885 5887 5889 5890 5890 5891 5892 5893 5893 5892 5891 5892 5891 5892 5892 5891 5891 5890 5889 5889 5889 5889 5888 5888 5888 5887 5886 5885 5885 5884 5883 5883 5882 5882 5882 5881 5881 5881 5881
5870 5873 5875 5877 5878 5881 5883 5885 5886 5887 5888 5888 5889 5890 5890 5888 5888 5887 5888 5889 5889 5888 5888 5887 5887 5887 5886 5886 5886 5886 5886 5885 5885 5884 5883 5883 5882 5882 5881 5881 5880 5880 5880 5879
5867 5869 5871 5872 5874 5876 5878 5881 5882 5884 5885 5885 5886 5885 5886 5883 5883 5883 5884 5884 5884 5884 5884 5884 5883 5883 5884 5883 5883 5883 5883 5883 5883 5883 5882 5882 5881 5880 5879 5879 5879 5878 5878 5877
5863 5866 5868 5868 5869 5870 5872 5874 5878 5880 5880 5880 5880 5881 5880 5879 5879 5880 5880 5879 5880 5881 5881 5880 5880 5880 5880 5880 5880 5880 5880 5881 5881 5880 5880 5879 5879 5878 5877 5876 5877 5876 5876 5875
5856 5858 5861 5863 5864 5864 5867 5869 5872 5873 5875 5876 5877 5877 5876 5875 5875 5875 5875 5876 5877 5877 5877 5876 5876 5877 5876 5876 5876 5877 5877 5877 5877 5877 5876 5876 5876 5876 5875 5874 5874 5874 5873 5872
5849 5851 5855 5857 5858 5861 5862 5864 5865 5867 5869 5870 5872 5873 5871 5870 5870 5870 5870 5871 5872 5873 5873 5872 5872 5872 5871 5871 5872 5872 5872 5872 5872 5872 5872 5872 5872 5872 5872 5871 5870 5870 5869 5868
5841 5844 5846 5850 5852 5854 5855 5857 5859 5860 5861 5864 5866 5867 5864 5864 5864 5865 5865 5865 5865 5867 5868 5867 5866 5867 5866 5867 5867 5866 5866 5867 5868 5868 5868 5868 5868 5868 5867 5867 5866 5865 5865 5864
5833 5835 5839 5843 5847 5848 5848 5850 5852 5854 5856 5858 5860 5862 5859 5858 5858 5858 5858 5859 5861 5861 5863 5862 5861 5862 5862 5862 5863 5862 5860 5861 5862 5862 5862 5863 5863 5862 5862 5861 5861 5860 5859 5858
5825 5827 5831 5835 5838 5841 5841 5843 5845 5847 5849 5851 5852 5853 5852 5851 5851 5851 5852 5853 5855 5855 5855 5857 5856 5856 5856 5856 5857 5857 5856 5855 5855 5856 5856 5857 5857 5856 5856 5855 5854 5854 5853 5852
5816 5819 5821 5825 5829 5832 5833 5835 5837 5839 5840 5843 5845 5845 5844 5844 5843 5842 5843 5845 5847 5848 5848 5849 5850 5850 5851 5851 5851 5851 5850 5850 5850 5850 5850 5849 5850 5849 5849 5848 5848 5847 5846 5845
5807 5809 5812 5815 5819 5822 5824 5826 5829 5831 5833 5835 5836 5837 5836 5835 5834 5834 5836 5837 5839 5840 5840 5841 5842 5843 5843 5844 5844 5844 5844 5844 5844 5843 5843 5842 5842 5841 5841 5841 5840 5839 5838 5838
5798 5801 5803 5805 5810 5812 5815 5818 5821 5823 5825 5826 5827 5828 5827 5827 5827 5826 5827 5830 5831 5832 5832 5833 5834 5835 5835 5836 5836 5836 5836 5837 5836 5836 5835 5835 5834 5834 5834 5833 5833 5832 5831 5831
5789 5791 5793 5796 5799 5801 5808 5810 5812 5813 5815 5817 5816 5817 5817 5817 5818 5818 5819 5821 5821 5823 5824 5825 5826 5826 5827 5828 5828 5828 5828 5828 5827 5827 5828 5827 5827 5826 5825 5825 5825 5824 5824 5823
5780 5782 5784 5787 5789 5792 5797 5799 5801 5803 5803 5805 5805 5805 5806 5807 5808 5810 5810 5811 5812 5813 5815 5816 5816 5817 5818 5818 5819 5819 5819 5819 5818 5819 5820 5820 5819 5818 5818 5818 5817 5816 5815 5815
5770 5772 5775 5777 5780 5783 5787 5789 5791 5793 5791 5793 5793 5795 5796 5798 5799 5800 5801 5802 5803 5804 5805 5806 5807 5808 5809 5809 5809 5810 5810 5810 5811 5811 5811 5811 5810 5810 5809 5808 5807 5806 5806 5805
5761 5762 5764 5767 5769 5772 5777 5779 5781 5783 5783 5784 5784 5785 5786 5787 5789 5790 5791 5792 5793 5794 5795 5796 5797 5799 5799 5800 5800 5800 5801 5801 5801 5801 5801 5801 5800 5799 5799 5798 5798 5797 5796 5795
5752 5754 5755 5757 5759 5764 5766 5768 5770 5771 5773 5773 5774 5776 5776 5777 5778 5780 5780 5781 5783 5784 5785 5786 5787 5789 5790 5790 5790 5791 5791 5791 5791 5792 5791 5791 5791 5790 5789 5788 5788 5787 5785 5783
5741 5744 5746 5748 5750 5752 5755 5757 5759 5761 5762 5763 5764 5766 5767 5768 5769 5770 5771 5772 5773 5774 5775 5776 5777 5778 5779 5780 5780 5781 5781 5781 5781 5781 5781 5781 5780 5779 5778 5778 5777 5776 5775 5774
5730 5732 5735 5737 5739 5742 5744 5746 5748 5750 5752 5753 5755 5756 5757 5758 5759 5760 5761 5762 5762 5763 5765 5765 5767 5768 5768 5769 5769 5770 5770 5770 5770 5770 5770 5769 5769 5768 5767 5767 5766 5765 5764 5763
5721 5722 5724 5726 5730 5732 5735 5737 5738 5740 5742 5743 5745 5747 5748 5749 5750 5750 5751 5752 5752 5753 5754 5755 5756 5757 5758 5758 5759 5759 5759 5759 5759 5759 5759 5758 5758 5757 5757 5756 5754 5753 5753 5752
5713 5714 5715 5718 5721 5723 5726 5727 5728 5731 5733 5735 5737 5738 5739 5740 5740 5741 5742 5742 5743 5744 5744 5745 5746 5746 5747 5747 5748 5748 5748 5747 5747 5747 5747 5747 5746 5746 5745 5744 5743 5742 5741 5740